Regional Weather Roundup
Issued by NWS

Home | Current Version | Previous Version | Graphics & Text | Print | Product List | Glossary On
Versions: 1 2 3 4 5 6 7 8 9 10 11 12 13 14 15 16 17 18 19 20 21 22 23 24 25 26 27 28 29 30 31 32 33 34 35 36 37 38 39 40 41 42 43 44 45 46 47 48 49 50
921
ASUS45 KSLC 221810
RWRUT

UTAH REGIONAL WEATHER ROUNDUP
NATIONAL WEATHER SERVICE SALT LAKE CITY UT
1200 PM MDT FRI JUL 22 2016

UTZ001>011-023>025-221900-

NORTHERN UTAH

CITY           SKY/WX    TMP DP  RH WIND       PRES   REMARKS
BRIGHAM CITY     N/A     93  37  14 S15G21    30.13F
HILL AFB       MOSUNNY   92  48  21 S12       30.18S
LOGAN          SUNNY     91  47  21 S8        30.14R
OGDEN          SUNNY     94  45  18 SW7       30.14S HX  90
PROVO AIRPORT  MOSUNNY   91  50  24 SE5       30.17F
SALT LAKE CITY MOSUNNY   96  46  18 S12G20    30.11S HX  92
VERNAL         SUNNY     83  51  33 SE5       30.28F
WENDOVER       SUNNY     91  28  10 N12       30.14F
HEBER CITY     MOSUNNY   91  43  18 SW12      30.24F

$$

UTZ012>022-026-027-221900-

SOUTHERN/CENTRAL UTAH

CITY           SKY/WX    TMP DP  RH WIND       PRES   REMARKS
BLANDING       SUNNY     83  49  30 CALM      30.43F
BRYCE CANYON   MOSUNNY   80  45  28 S8        30.47F
CEDAR CITY     SUNNY     93  41  16 S15       30.27F
DELTA          SUNNY     95  34  11 SW12G22   30.18F HX  90
MILFORD        SUNNY     94  40  15 S15G22    30.21F HX  90
MOAB/CYNLANDS  SUNNY     92  51  24 CALM      30.20F
PRICE          SUNNY     84  47  27 VRB7      30.34S
ST GEORGE      PTCLDY    99  46  16 NW3       30.09F HX  95
KANAB          SUNNY     93  46  20 CALM      30.28F

$$

REGIONAL REPORTS     COLORADO/ARIZONA

CITY           SKY/WX    TMP DP  RH WIND       PRES   REMARKS
CRAIG, CO      SUNNY     85  46  25 SW12      30.35F
GRAND JUNCTION SUNNY     88  52  29 SE8       30.25F
RIFLE          SUNNY     84  51  31 N5        30.31F
MONTROSE       SUNNY     83  54  36 MISG      30.35F
CORTEZ         SUNNY     84  49  29 VRB6      30.36F
PAGE, AZ       SUNNY     93  51  23 N6        30.20F HX  90
GRAND CANYON   MOSUNNY   87  45  23 S7        30.41S
KINGMAN        SUNNY    100  41  13 SW14G20   30.13S HX  95
FLAGSTAFF      MOSUNNY   78  52  40 SW8       30.45F

$$

REGIONAL REPORTS    NEVADA/IDAHO/WYOMING

CITY           SKY/WX    TMP DP  RH WIND       PRES   REMARKS
LAS VEGAS, NV  MOSUNNY  106  26   6 SE10      29.96S HX  98
ELY            SUNNY     87  32  14 SW12G24   30.31S
ELKO           SUNNY     86  19   8 SW8G18    30.25S
POCATELLO, ID  SUNNY     87  36  16 W17       30.17R
BURLEY         SUNNY     81  38  21 W12       30.17R
EVANSTON, WY   SUNNY     86  39  19 SW14G24   30.36S
ROCK SPRINGS   SUNNY     83  40  21 CALM      30.35S
KEMMERER         N/A     82  37  20 CALM      30.38S

$$




USA.gov is the U.S. government's official web portal to all federal, state and local government web resources and services.